When you browse on this site, cookies collect data to enhance your experience and personalize the content and advertising you see.
Visit our Privacy Policy to learn more. By continuing to use the site, you agree to this use of cookies and data.
  • In France
  • List of Countries
  • For 7 days
  • Water Temperature
  • Weather Map
  • Weather Widgets
  • user-avatar
    Login

    Hourly Weather Aguililla

    Today, 22 September, Sunday

    Time Temperature Precipitation Wind Pressure Humidity
    00:00 +21°C° 0.5 mm 1 mps 676 mmHg 95%
    01:00 +21°C° 0.5 mm 1 mps 676 mmHg 94%
    02:00 +19°C° 0.5 mm 0 mps 676 mmHg 94%
    03:00 +19°C° 0.4 mm 0 mps 675 mmHg 94%
    04:00 +18°C° 0.4 mm 0 mps 675 mmHg 93%
    05:00 +18°C° 0.4 mm 0 mps 675 mmHg 93%
    06:00 +20°C° 0 mm 0 mps 676 mmHg 91%
    07:00 +21°C° 0 mm 0 mps 677 mmHg 88%
    08:00 +22°C° 0 mm 0 mps 678 mmHg 86%
    09:00 +24°C° 0.3 mm 0 mps 678 mmHg 82%
    10:00 +25°C° 0.3 mm 0 mps 678 mmHg 77%
    11:00 +29°C° 0.3 mm 1 mps 678 mmHg 73%
    12:00 +27°C° 1.1 mm 0 mps 677 mmHg 75%
    13:00 +27°C° 1.1 mm 0 mps 677 mmHg 77%
    14:00 +27°C° 1.1 mm 0 mps 676 mmHg 79%
    15:00 +26°C° 1.1 mm 0 mps 676 mmHg 83%
    16:00 +27°C° 1.1 mm 1 mps 676 mmHg 87%
    17:00 +26°C° 1.1 mm 1 mps 675 mmHg 91%
    18:00 +24°C° 0.9 mm 1 mps 676 mmHg 92%
    19:00 +23°C° 0.9 mm 1 mps 676 mmHg 94%
    20:00 +22°C° 0.9 mm 1 mps 676 mmHg 95%
    21:00 +22°C° 0.4 mm 1 mps 676 mmHg 96%
    22:00 +22°C° 0.4 mm 1 mps 676 mmHg 96%
    23:00 +22°C° 0.4 mm 1 mps 676 mmHg 96%

    Tomorrow, 23 September, Monday

    Time Temperature Precipitation Wind Pressure Humidity
    00:00 +21°C° 0.3 mm 1 mps 676 mmHg 96%
    01:00 +21°C° 0.3 mm 1 mps 676 mmHg 96%
    02:00 +21°C° 0.3 mm 1 mps 676 mmHg 96%
    03:00 +19°C° 0.5 mm 0 mps 676 mmHg 96%
    04:00 +19°C° 0.5 mm 0 mps 676 mmHg 96%
    05:00 +19°C° 0.5 mm 0 mps 675 mmHg 96%
    06:00 +20°C° 0.1 mm 0 mps 676 mmHg 94%
    07:00 +21°C° 0.1 mm 0 mps 677 mmHg 92%
    08:00 +22°C° 0.1 mm 0 mps 678 mmHg 90%
    09:00 +24°C° 0.2 mm 0 mps 678 mmHg 85%
    10:00 +25°C° 0.2 mm 0 mps 678 mmHg 80%
    11:00 +28°C° 0.2 mm 1 mps 678 mmHg 75%
    12:00 +29°C° 0.6 mm 1 mps 677 mmHg 76%
    13:00 +29°C° 0.6 mm 1 mps 677 mmHg 77%
    14:00 +27°C° 0.6 mm 0 mps 676 mmHg 77%
    15:00 +28°C° 0.7 mm 1 mps 676 mmHg 82%
    16:00 +27°C° 0.7 mm 1 mps 675 mmHg 87%
    17:00 +26°C° 0.7 mm 1 mps 675 mmHg 92%
    18:00 +25°C° 1.2 mm 1 mps 675 mmHg 93%
    19:00 +24°C° 1.2 mm 1 mps 675 mmHg 95%
    20:00 +23°C° 1.2 mm 1 mps 676 mmHg 96%
    21:00 +23°C° 0.7 mm 1 mps 676 mmHg 96%
    22:00 +22°C° 0.7 mm 1 mps 676 mmHg 97%
    23:00 +22°C° 0.7 mm 1 mps 676 mmHg 97%

    Day after tomorrow, 24 September, Tuesday

    Time Temperature Precipitation Wind Pressure Humidity
    00:00 +22°C° 0.9 mm 1 mps 676 mmHg 97%
    01:00 +22°C° 0.9 mm 1 mps 675 mmHg 97%
    02:00 +20°C° 0.9 mm 0 mps 675 mmHg 97%
    03:00 +20°C° 1.1 mm 0 mps 675 mmHg 97%
    04:00 +20°C° 1.1 mm 0 mps 675 mmHg 97%
    05:00 +19°C° 1.1 mm 0 mps 675 mmHg 97%
    06:00 +20°C° 0.7 mm 0 mps 676 mmHg 96%
    07:00 +21°C° 0.7 mm 0 mps 676 mmHg 96%
    08:00 +22°C° 0.7 mm 0 mps 677 mmHg 95%
    09:00 +23°C° 0.5 mm 0 mps 677 mmHg 90%
    10:00 +24°C° 0.5 mm 0 mps 677 mmHg 86%
    11:00 +27°C° 0.5 mm 1 mps 677 mmHg 82%
    12:00 +26°C° 1.1 mm 0 mps 676 mmHg 82%
    13:00 +26°C° 1.1 mm 0 mps 676 mmHg 83%
    14:00 +26°C° 1.1 mm 0 mps 675 mmHg 83%
    15:00 +25°C° 0.4 mm 0 mps 675 mmHg 86%
    16:00 +24°C° 0.4 mm 0 mps 675 mmHg 89%
    17:00 +24°C° 0.4 mm 0 mps 674 mmHg 92%
    18:00 +25°C° 1 mm 1 mps 675 mmHg 93%
    19:00 +24°C° 1 mm 1 mps 675 mmHg 95%
    20:00 +23°C° 1 mm 1 mps 675 mmHg 97%
    21:00 +22°C° 1.4 mm 1 mps 675 mmHg 97%
    22:00 +22°C° 1.4 mm 1 mps 675 mmHg 97%
    23:00 +22°C° 1.4 mm 1 mps 675 mmHg 97%

    25 September, Wednesday

    Time Temperature Precipitation Wind Pressure Humidity
    00:00 +22°C° 1.3 mm 1 mps 675 mmHg 97%
    01:00 +21°C° 1.3 mm 1 mps 675 mmHg 97%
    02:00 +21°C° 1.3 mm 1 mps 675 mmHg 97%
    03:00 +21°C° 0.3 mm 1 mps 675 mmHg 97%
    04:00 +19°C° 0.3 mm 0 mps 675 mmHg 97%
    05:00 +18°C° 0.3 mm 0 mps 675 mmHg 97%
    06:00 +20°C° 0 mm 0 mps 675 mmHg 95%
    07:00 +21°C° 0 mm 0 mps 676 mmHg 93%
    08:00 +22°C° 0 mm 0 mps 677 mmHg 91%
    09:00 +23°C° 0.4 mm 0 mps 677 mmHg 88%
    10:00 +24°C° 0.4 mm 0 mps 677 mmHg 85%
    11:00 +27°C° 0.4 mm 1 mps 677 mmHg 83%
    12:00 +27°C° 1.6 mm 1 mps 676 mmHg 83%
    13:00 +27°C° 1.6 mm 1 mps 675 mmHg 84%
    14:00 +25°C° 1.6 mm 0 mps 675 mmHg 85%
    15:00 +26°C° 1.9 mm 1 mps 675 mmHg 88%
    16:00 +26°C° 1.9 mm 1 mps 674 mmHg 91%
    17:00 +25°C° 1.9 mm 1 mps 674 mmHg 94%
    18:00 +24°C° 1.7 mm 1 mps 675 mmHg 95%
    19:00 +23°C° 1.7 mm 1 mps 675 mmHg 95%
    20:00 +22°C° 1.7 mm 1 mps 676 mmHg 96%
    21:00 +22°C° 1.2 mm 1 mps 676 mmHg 96%
    22:00 +22°C° 1.2 mm 1 mps 676 mmHg 96%
    23:00 +22°C° 1.2 mm 1 mps 676 mmHg 96%

    26 September, Thursday

    Time Temperature Precipitation Wind Pressure Humidity
    00:00 +19°C° 0.6 mm 0 mps 675 mmHg 96%
    01:00 +19°C° 0.6 mm 0 mps 675 mmHg 96%
    02:00 +19°C° 0.6 mm 0 mps 675 mmHg 96%
    03:00 +19°C° 0.1 mm 0 mps 675 mmHg 96%
    04:00 +18°C° 0.1 mm 0 mps 674 mmHg 96%
    05:00 +18°C° 0.1 mm 0 mps 674 mmHg 96%
    06:00 +20°C° 0 mm 0 mps 675 mmHg 93%
    07:00 +21°C° 0 mm 0 mps 675 mmHg 90%
    08:00 +22°C° 0 mm 0 mps 676 mmHg 88%
    09:00 +24°C° 0 mm 0 mps 676 mmHg 80%
    10:00 +26°C° 0 mm 0 mps 676 mmHg 73%
    11:00 +30°C° 0 mm 1 mps 676 mmHg 65%
    12:00 +29°C° 0.5 mm 1 mps 675 mmHg 69%
    13:00 +29°C° 0.5 mm 1 mps 674 mmHg 72%
    14:00 +29°C° 0.5 mm 1 mps 674 mmHg 76%
    15:00 +28°C° 1.2 mm 1 mps 673 mmHg 81%
    16:00 +27°C° 1.2 mm 1 mps 673 mmHg 86%
    17:00 +26°C° 1.2 mm 1 mps 673 mmHg 92%
    18:00 +25°C° 0.7 mm 1 mps 673 mmHg 93%
    19:00 +24°C° 0.7 mm 1 mps 673 mmHg 93%
    20:00 +23°C° 0.7 mm 1 mps 674 mmHg 94%
    21:00 +22°C° 0.1 mm 1 mps 674 mmHg 94%
    22:00 +22°C° 0.1 mm 1 mps 674 mmHg 94%
    23:00 +20°C° 0.1 mm 0 mps 674 mmHg 94%

    27 September, Friday

    Time Temperature Precipitation Wind Pressure Humidity
    00:00 +20°C° 0 mm 0 mps 673 mmHg 95%
    01:00 +20°C° 0 mm 0 mps 673 mmHg 95%
    02:00 +19°C° 0 mm 0 mps 673 mmHg 95%
    03:00 +19°C° 0 mm 0 mps 672 mmHg 96%
    04:00 +19°C° 0 mm 0 mps 672 mmHg 96%
    05:00 +19°C° 0 mm 0 mps 672 mmHg 96%
    06:00 +21°C° 0 mm 0 mps 673 mmHg 94%
    07:00 +22°C° 0 mm 0 mps 673 mmHg 91%
    08:00 +23°C° 0 mm 0 mps 674 mmHg 89%
    09:00 +26°C° 0.2 mm 1 mps 674 mmHg 85%
    10:00 +27°C° 0.2 mm 1 mps 674 mmHg 80%
    11:00 +28°C° 0.2 mm 1 mps 674 mmHg 75%
    12:00 +28°C° 0.5 mm 1 mps 673 mmHg 77%
    13:00 +28°C° 0.5 mm 1 mps 673 mmHg 80%
    14:00 +26°C° 0.5 mm 0 mps 672 mmHg 82%
    15:00 +25°C° 0.3 mm 0 mps 672 mmHg 85%
    16:00 +25°C° 0.3 mm 0 mps 672 mmHg 88%
    17:00 +24°C° 0.3 mm 0 mps 672 mmHg 92%
    18:00 +23°C° 0.4 mm 0 mps 672 mmHg 93%
    19:00 +24°C° 0.4 mm 1 mps 672 mmHg 94%
    20:00 +23°C° 0.4 mm 1 mps 672 mmHg 95%
    21:00 +23°C° 1.1 mm 1 mps 673 mmHg 95%
    22:00 +23°C° 1.1 mm 1 mps 673 mmHg 95%
    23:00 +23°C° 1.1 mm 1 mps 673 mmHg 96%
    Show more